Location: Unspecified
(0.0000°N, 0.0000°E)
Time: 18:57:26
(UTC+00:00)

SRMSAT - Pass Details

Date: 04 June 2020
Orbit: 848 x 866 km, 20.0° (Epoch: 06 July)

Event Time Altitude Azimuth Distance (km) Brightness Sun altitude
Rises 20:24:29 0° 312° (NW) 3,387 ? -33.3°
Reaches altitude 10° 20:27:36 10° 327° (NNW) 2,453 ? -34.0°
Enters shadow 20:31:01 21° 1° (N) 1,803 ? -34.8°
